#timestamp,LO_Frequency,Hit,StdDev 
1557748815.7,286046993.4,P
1557748835.5,286046998.8,N
1557748855.4,286046990.3,N
1557748875.2,286047000.8,N
1557748895.0,286046995.3,N
1557748895.9,286046995.3,N
1557748915.8,286047002.7,N
1557748935.6,286047005.5,N
1557748955.5,286047006.0,N
1557748975.3,286047003.3,N
1557748995.1,286047004.6,N
1557749015.9,286047003.1,N
1557749035.7,286047009.2,N
1557749055.5,286047001.7,N
1557749075.4,286047004.2,N
1557749095.2,286047000.3,N
1557749115.1,286047003.3,N
1557749116.0,286047003.3,N
1557749135.8,286047012.2,N
1557749155.6,286047011.1,N
1557749175.5,286047009.3,N
1557749195.3,286047003.3,N
1557749215.1,286047006.3,N
1557749235.9,286047002.6,N
1557749255.7,286047004.4,N
1557749275.6,286046998.1,N
1557749295.4,286047010.4,N
1557749315.2,286047005.8,N
1557749335.1,286046994.9,N
1557749336.0,286046994.9,N
1557749355.8,286046995.6,N
1557749375.7,286046993.9,N
1557749395.5,286046995.3,N
1557749415.3,286046996.1,N
1557749435.2,286047004.2,N
1557749455.9,286047000.4,N
1557749475.7,286046999.9,N
1557749495.6,286047006.0,N
1557749515.4,286047009.3,N
1557749535.2,286047000.1,N
1557749555.1,286046999.3,N
1557749556.0,286046999.3,N
1557749575.8,286046998.9,N
1557749595.7,286047000.8,N
1557749615.5,286046996.1,N
1557749635.3,286046996.5,N
1557749655.2,286046999.9,N
1557749675.0,286046999.7,N
1557749675.9,286046999.7,N
1557749695.8,286047004.4,N
1557749715.6,286047000.0,N
1557749735.4,286047000.2,N
1557749755.3,286046996.2,N
1557749775.1,286046993.8,N
1557749795.8,286046990.2,N
1557749815.7,286046995.7,N
1557749835.5,286046997.5,N
1557749855.4,286046995.3,N
1557749875.2,286046990.5,N
1557749895.0,286046994.7,N
1557749895.9,286046994.7,N
1557749915.8,286046995.4,N
1557749935.6,286046999.7,N
1557749955.4,286047003.7,N
1557749975.3,286047004.5,N
1557749995.1,286047010.1,N
1557750015.9,286047005.7,N
1557750035.7,286047008.2,N
1557750055.5,286047014.6,N
1557750075.4,286047023.5,Y
1557750095.2,286047017.3,P
1557750115.0,286047014.6,N
1557750115.9,286047014.6,N
1557750135.8,286047012.6,N
1557750155.6,286047013.0,N
1557750175.5,286047010.7,N
1557750195.3,286047006.7,N
1557750215.1,286047006.0,N
1557750235.9,286047013.1,N
1557750255.7,286047012.9,N
1557750275.6,286047014.7,Y
1557750295.4,286047004.6,P
1557750315.2,286046994.3,N
1557750335.1,286046991.3,N
1557750336.0,286046991.3,N
1557750355.8,286046996.0,N
1557750375.6,286046995.1,N
1557750395.5,286046993.4,N
1557750415.3,286046992.8,N
1557750435.2,286046991.9,N
1557750455.9,286046998.0,N
1557750475.7,286046991.6,N
1557750495.6,286046989.2,N
1557750515.4,286046990.5,N
1557750535.2,286046996.3,N
1557750555.1,286046994.7,N
1557750556.0,286046994.7,N
1557750575.8,286046995.9,N
1557750595.7,286046990.8,N
1557750615.5,286046988.2,N
1557750635.3,286046993.9,N
1557750655.2,286046991.4,N
1557750675.0,286046990.1,N
1557750675.9,286046990.1,N
1557750695.8,286046988.5,N
1557750715.6,286046997.7,N
1557750735.4,286046990.4,N
1557750755.3,286046999.4,N
1557750775.1,286046993.9,N
1557750795.8,286046990.8,N
1557750815.7,286046994.0,N
1557750835.5,286046997.0,N
1557750855.4,286046992.4,N
1557750875.2,286046993.9,N
1557750895.0,286046994.7,N
1557750895.9,286046994.7,N
1557750915.8,286046994.9,N
1557750935.6,286047001.2,N
1557750955.5,286046994.2,N
1557750975.3,286046998.9,N
1557750995.1,286046992.3,N
1557751015.9,286046990.2,Y
1557751035.7,286046998.9,P
1557751055.5,286046991.3,P
1557751075.4,286046993.7,N
1557751095.2,286046987.6,Y
1557751115.1,286046988.2,P
1557751116.0,286046988.2,P
1557751135.8,286046988.5,P
1557751155.6,286046987.3,Y
1557751175.5,286046998.6,P
1557751195.3,286047003.8,N
1557751215.2,286046999.6,N
1557751235.9,286047001.7,N
1557751255.7,286047004.9,N
1557751275.6,286047008.8,N
1557751295.4,286047010.5,N
1557751315.2,286047009.1,N
1557751335.1,286047001.6,N
1557751336.0,286047001.6,N
1557751355.8,286047005.1,N
1557751375.7,286046999.9,N
1557751395.5,286047004.7,N
1557751415.3,286047005.4,N
1557751435.2,286047002.0,N
1557751455.0,286047010.2,N
1557751455.9,286047010.2,N
1557751475.7,286047006.3,N
1557751495.6,286047009.9,N
1557751515.4,286047003.0,N
1557751535.3,286047006.8,N
1557751555.1,286047007.3,N
1557751556.0,286047007.3,N
1557751575.8,286047008.3,N
1557751595.7,286047013.0,N
1557751615.5,286047006.4,N
1557751635.3,286047001.3,N
1557751655.2,286047007.1,N
1557751675.0,286047005.9,N
1557751675.9,286047005.9,N
1557751695.8,286047005.5,N
1557751715.6,286047006.9,N
1557751735.4,286047003.7,N
1557751755.3,286047006.7,N
1557751775.1,286047003.6,N
1557751795.8,286047004.0,N
1557751815.7,286047003.9,N
1557751835.5,286046997.3,N
1557751855.4,286047006.9,N
1557751875.2,286047006.8,N
1557751895.0,286047010.5,Y
1557751895.9,286047010.5,P
1557751915.8,286046999.9,N
1557751935.6,286046997.9,N
1557751955.5,286046993.1,N
1557751975.3,286046988.9,N
1557751995.1,286046990.3,N
1557752015.9,286046993.5,N
1557752035.7,286046996.6,N
1557752055.5,286046999.6,N
1557752075.4,286046999.0,N
1557752095.2,286046997.4,N
1557752115.1,286047002.4,N
1557752116.0,286047002.4,N
1557752135.8,286047005.1,N
1557752155.6,286047003.5,N
1557752175.5,286046998.5,N
1557752195.3,286047000.9,N
1557752215.2,286047004.9,N
1557752235.9,286046999.7,N
1557752255.7,286046995.7,N
1557752275.6,286046997.1,N
1557752295.4,286047000.6,N
1557752315.2,286046997.4,N
1557752335.1,286047009.0,N
1557752336.0,286047009.0,N
1557752355.8,286047009.1,N
1557752375.7,286047004.8,N
1557752395.5,286047000.1,N
